Time,TemperatureF,DewpointF,PressureIn,WindDirection,WindDirectionDegrees,WindSpeedMPH,WindSpeedGustMPH,Humidity,HourlyPrecipIn,Conditions,Clouds,dailyrainin,SoftwareType,DateUTC
2013-01-31 00:00:00,41.9,36.8,30.20,NNE,33,0.0,0.0,82,0.00,,CLR,0.00,VWS V14.00,2013-01-31 08:00:00,
2013-01-31 00:01:00,43.1,37.7,30.20,NE,34,0.0,0.0,81,0.00,,CLR,0.00,VWS V14.00,2013-01-31 08:01:00,
2013-01-31 00:06:00,43.2,37.5,30.21,NE,34,0.0,0.0,80,0.00,,CLR,0.00,VWS V14.00,2013-01-31 08:06:00,
2013-01-31 00:11:00,43.1,37.4,30.20,NE,34,0.0,0.0,80,0.00,,CLR,0.00,VWS V14.00,2013-01-31 08:11:00,
2013-01-31 00:16:00,42.9,37.2,30.21,NE,34,0.0,0.0,80,0.00,,CLR,0.00,VWS V14.00,2013-01-31 08:16:00,
2013-01-31 00:21:00,42.6,37.2,30.21,NE,34,0.0,0.0,81,0.00,,CLR,0.00,VWS V14.00,2013-01-31 08:21:00,
2013-01-31 00:26:00,43.0,37.6,30.21,NE,34,0.0,0.0,81,0.00,,CLR,0.00,VWS V14.00,2013-01-31 08:26:00,
2013-01-31 00:30:00,41.2,36.1,30.21,NE,34,0.0,0.0,82,0.00,,CLR,0.00,VWS V14.00,2013-01-31 08:30:00,
2013-01-31 00:31:00,42.6,37.5,30.20,NE,34,0.0,0.0,82,0.00,,CLR,0.00,VWS V14.00,2013-01-31 08:31:00,
2013-01-31 00:36:00,42.7,37.6,30.21,NE,34,0.0,0.0,82,0.00,,CLR,0.00,VWS V14.00,2013-01-31 08:36:00,
2013-01-31 00:41:00,42.2,37.1,30.20,NE,34,0.0,0.0,82,0.00,,CLR,0.00,VWS V14.00,2013-01-31 08:41:00,
2013-01-31 00:46:00,42.3,37.2,30.21,NE,34,0.0,0.0,82,0.00,,CLR,0.00,VWS V14.00,2013-01-31 08:46:00,
2013-01-31 00:51:00,42.2,37.1,30.20,NE,34,0.0,0.0,82,0.00,,CLR,0.00,VWS V14.00,2013-01-31 08:51:00,
2013-01-31 00:56:00,42.2,37.1,30.20,NE,34,0.0,0.0,82,0.00,,CLR,0.00,VWS V14.00,2013-01-31 08:56:00,
2013-01-31 01:00:00,40.7,36.2,30.20,NE,34,0.0,0.0,84,0.00,,CLR,0.00,VWS V14.00,2013-01-31 09:00:00,
2013-01-31 01:01:00,42.2,37.1,30.20,NE,34,0.0,0.0,82,0.00,,CLR,0.00,VWS V14.00,2013-01-31 09:01:00,
2013-01-31 01:06:00,42.1,37.0,30.21,NE,34,0.0,0.0,82,0.00,,CLR,0.00,VWS V14.00,2013-01-31 09:06:00,
2013-01-31 01:11:00,41.5,36.4,30.20,NE,34,0.0,0.0,82,0.00,,CLR,0.00,VWS V14.00,2013-01-31 09:11:00,
2013-01-31 01:16:00,41.7,36.6,30.21,NE,34,0.0,0.0,82,0.00,,CLR,0.00,VWS V14.00,2013-01-31 09:16:00,
2013-01-31 01:21:00,41.5,36.4,30.20,NE,34,0.0,0.0,82,0.00,,CLR,0.00,VWS V14.00,2013-01-31 09:21:00,
2013-01-31 01:26:00,41.5,36.7,30.20,NE,34,0.0,0.0,83,0.00,,CLR,0.00,VWS V14.00,2013-01-31 09:26:00,
2013-01-31 01:30:00,40.3,35.9,30.19,NE,34,0.0,0.0,84,0.00,,CLR,0.00,VWS V14.00,2013-01-31 09:30:00,
2013-01-31 01:31:00,41.2,36.4,30.21,NE,34,0.0,0.0,83,0.00,,CLR,0.00,VWS V14.00,2013-01-31 09:31:00,
2013-01-31 01:36:00,41.3,36.2,30.21,NE,34,0.0,0.0,82,0.00,,CLR,0.00,VWS V14.00,2013-01-31 09:36:00,
2013-01-31 01:41:00,40.7,35.6,30.21,NNE,33,0.0,0.0,82,0.00,,CLR,0.00,VWS V14.00,2013-01-31 09:41:00,
2013-01-31 01:46:00,40.6,35.8,30.20,NE,34,0.0,0.0,83,0.00,,CLR,0.00,VWS V14.00,2013-01-31 09:46:00,
2013-01-31 01:51:00,40.7,36.0,30.20,NE,34,0.0,0.0,83,0.00,,CLR,0.00,VWS V14.00,2013-01-31 09:51:00,
2013-01-31 01:56:00,40.7,36.0,30.20,NE,34,0.0,0.0,83,0.00,,CLR,0.00,VWS V14.00,2013-01-31 09:56:00,
2013-01-31 02:00:00,39.9,35.5,30.19,NE,34,0.0,0.0,84,0.00,,CLR,0.00,VWS V14.00,2013-01-31 10:00:00,
2013-01-31 02:01:00,40.7,36.2,30.20,NE,34,0.0,0.0,84,0.00,,CLR,0.00,VWS V14.00,2013-01-31 10:01:00,
2013-01-31 02:06:00,40.7,36.2,30.20,NE,34,0.0,0.0,84,0.00,,CLR,0.00,VWS V14.00,2013-01-31 10:06:00,
2013-01-31 02:11:00,40.4,36.0,30.20,NE,34,0.0,0.0,84,0.00,,CLR,0.00,VWS V14.00,2013-01-31 10:11:00,
2013-01-31 02:16:00,40.4,36.0,30.20,NE,34,0.0,0.0,84,0.00,,CLR,0.00,VWS V14.00,2013-01-31 10:16:00,
2013-01-31 02:21:00,40.4,35.7,30.20,NE,34,0.0,0.0,83,0.00,,CLR,0.00,VWS V14.00,2013-01-31 10:21:00,
2013-01-31 02:26:00,40.4,36.0,30.20,NE,34,0.0,0.0,84,0.00,,CLR,0.00,VWS V14.00,2013-01-31 10:26:00,
2013-01-31 02:30:00,39.3,35.2,30.19,NE,34,0.0,0.0,85,0.00,,CLR,0.00,VWS V14.00,2013-01-31 10:30:00,
2013-01-31 02:31:00,40.1,35.7,30.19,NE,34,0.0,0.0,84,0.00,,CLR,0.00,VWS V14.00,2013-01-31 10:31:00,
2013-01-31 02:37:00,40.2,35.8,30.19,NE,34,0.0,0.0,84,0.00,,CLR,0.00,VWS V14.00,2013-01-31 10:37:00,
2013-01-31 02:42:00,40.1,35.7,30.19,NE,34,0.0,0.0,84,0.00,,CLR,0.00,VWS V14.00,2013-01-31 10:42:00,
2013-01-31 02:47:00,39.8,35.4,30.19,NE,34,0.0,0.0,84,0.00,,CLR,0.00,VWS V14.00,2013-01-31 10:47:00,
2013-01-31 02:52:00,39.8,35.1,30.19,NE,34,0.0,0.0,83,0.00,,CLR,0.00,VWS V14.00,2013-01-31 10:52:00,
2013-01-31 02:57:00,39.7,35.3,30.19,NE,34,0.0,0.0,84,0.00,,CLR,0.00,VWS V14.00,2013-01-31 10:57:00,
2013-01-31 03:00:00,38.6,34.5,30.18,NE,34,0.0,0.0,85,0.00,,CLR,0.00,VWS V14.00,2013-01-31 11:00:00,
2013-01-31 03:02:00,39.5,35.4,30.19,NE,34,0.0,0.0,85,0.00,,CLR,0.00,VWS V14.00,2013-01-31 11:02:00,
2013-01-31 03:07:00,39.5,35.1,30.19,NE,34,0.0,0.0,84,0.00,,CLR,0.00,VWS V14.00,2013-01-31 11:07:00,
2013-01-31 03:11:00,39.4,35.0,30.19,NE,34,0.0,0.0,84,0.00,,CLR,0.00,VWS V14.00,2013-01-31 11:11:00,
2013-01-31 03:17:00,39.2,35.1,30.19,NNE,33,0.0,0.0,85,0.00,,CLR,0.00,VWS V14.00,2013-01-31 11:17:00,
2013-01-31 03:22:00,39.2,35.1,30.19,NE,34,0.0,0.0,85,0.00,,CLR,0.00,VWS V14.00,2013-01-31 11:22:00,
2013-01-31 03:27:00,38.9,34.8,30.18,NE,34,0.0,0.0,85,0.00,,CLR,0.00,VWS V14.00,2013-01-31 11:27:00,
2013-01-31 03:30:00,38.4,34.6,30.19,NE,34,0.0,0.0,86,0.00,,CLR,0.00,VWS V14.00,2013-01-31 11:30:00,
2013-01-31 03:32:00,39.4,35.3,30.19,NE,34,0.0,0.0,85,0.00,,CLR,0.00,VWS V14.00,2013-01-31 11:32:00,
2013-01-31 03:37:00,39.2,34.8,30.18,NE,34,0.0,0.0,84,0.00,,CLR,0.00,VWS V14.00,2013-01-31 11:37:00,
2013-01-31 03:42:00,39.2,34.8,30.18,NE,34,0.0,0.0,84,0.00,,CLR,0.00,VWS V14.00,2013-01-31 11:42:00,
2013-01-31 03:47:00,38.9,34.8,30.18,NE,34,0.0,0.0,85,0.00,,CLR,0.00,VWS V14.00,2013-01-31 11:47:00,
2013-01-31 03:52:00,38.9,34.5,30.19,NE,34,0.0,0.0,84,0.00,,CLR,0.00,VWS V14.00,2013-01-31 11:52:00,
2013-01-31 03:57:00,38.7,34.3,30.19,NE,34,0.0,0.0,84,0.00,,CLR,0.00,VWS V14.00,2013-01-31 11:57:00,
2013-01-31 04:00:00,38.0,34.2,30.20,NE,34,0.0,0.0,86,0.00,,CLR,0.00,VWS V14.00,2013-01-31 12:00:00,
2013-01-31 04:02:00,38.7,34.6,30.18,NE,34,0.0,0.0,85,0.00,,CLR,0.00,VWS V14.00,2013-01-31 12:02:00,
2013-01-31 04:07:00,38.6,34.5,30.18,NE,34,0.0,0.0,85,0.00,,CLR,0.00,VWS V14.00,2013-01-31 12:07:00,
2013-01-31 04:12:00,38.5,34.4,30.19,NE,34,0.0,0.0,85,0.00,,CLR,0.00,VWS V14.00,2013-01-31 12:12:00,
2013-01-31 04:17:00,38.4,34.3,30.18,NE,34,0.0,0.0,85,0.00,,CLR,0.00,VWS V14.00,2013-01-31 12:17:00,
2013-01-31 04:22:00,38.5,34.7,30.18,NNE,33,0.0,0.0,86,0.00,,CLR,0.00,VWS V14.00,2013-01-31 12:22:00,
2013-01-31 04:27:00,38.3,34.5,30.18,NE,34,0.0,0.0,86,0.00,,CLR,0.00,VWS V14.00,2013-01-31 12:27:00,
2013-01-31 04:30:00,37.4,33.6,30.19,NE,34,0.0,0.0,86,0.00,,CLR,0.00,VWS V14.00,2013-01-31 12:30:00,
2013-01-31 04:32:00,38.3,34.5,30.19,NE,34,0.0,0.0,86,0.00,,CLR,0.00,VWS V14.00,2013-01-31 12:32:00,
2013-01-31 04:37:00,38.5,34.7,30.19,NE,34,0.0,0.0,86,0.00,,CLR,0.00,VWS V14.00,2013-01-31 12:37:00,
2013-01-31 04:42:00,38.1,34.3,30.19,NE,34,0.0,0.0,86,0.00,,CLR,0.00,VWS V14.00,2013-01-31 12:42:00,
2013-01-31 04:47:00,37.9,34.1,30.19,NE,34,0.0,0.0,86,0.00,,CLR,0.00,VWS V14.00,2013-01-31 12:47:00,
2013-01-31 04:52:00,38.0,34.2,30.20,NE,34,0.0,0.0,86,0.00,,CLR,0.00,VWS V14.00,2013-01-31 12:52:00,
2013-01-31 04:57:00,37.8,34.0,30.20,NE,34,0.0,0.0,86,0.00,,CLR,0.00,VWS V14.00,2013-01-31 12:57:00,
2013-01-31 05:00:00,37.2,33.7,30.19,NE,34,0.0,0.0,87,0.00,,CLR,0.00,VWS V14.00,2013-01-31 13:00:00,
2013-01-31 05:02:00,37.7,33.9,30.19,NE,34,0.0,0.0,86,0.00,,CLR,0.00,VWS V14.00,2013-01-31 13:02:00,
2013-01-31 05:07:00,37.8,34.0,30.19,NE,34,0.0,0.0,86,0.00,,CLR,0.00,VWS V14.00,2013-01-31 13:07:00,
2013-01-31 05:12:00,37.6,34.1,30.19,NE,34,0.0,0.0,87,0.00,,CLR,0.00,VWS V14.00,2013-01-31 13:12:00,
2013-01-31 05:17:00,37.7,34.2,30.19,NE,34,0.0,0.0,87,0.00,,CLR,0.00,VWS V14.00,2013-01-31 13:17:00,
2013-01-31 05:22:00,37.5,33.7,30.19,NE,34,0.0,0.0,86,0.00,,CLR,0.00,VWS V14.00,2013-01-31 13:22:00,
2013-01-31 05:27:00,37.5,34.0,30.19,NE,34,0.0,0.0,87,0.00,,CLR,0.00,VWS V14.00,2013-01-31 13:27:00,
2013-01-31 05:30:00,37.1,33.9,30.19,NNE,33,0.0,0.0,88,0.00,,CLR,0.00,VWS V14.00,2013-01-31 13:30:00,
2013-01-31 05:32:00,37.5,34.0,30.19,NE,34,0.0,0.0,87,0.00,,CLR,0.00,VWS V14.00,2013-01-31 13:32:00,
2013-01-31 05:37:00,37.3,33.8,30.19,NE,34,0.0,0.0,87,0.00,,CLR,0.00,VWS V14.00,2013-01-31 13:37:00,
2013-01-31 05:42:00,37.2,33.7,30.19,NE,34,0.0,0.0,87,0.00,,CLR,0.00,VWS V14.00,2013-01-31 13:42:00,
2013-01-31 05:47:00,37.3,33.8,30.19,NE,34,0.0,0.0,87,0.00,,CLR,0.00,VWS V14.00,2013-01-31 13:47:00,
2013-01-31 05:52:00,37.0,33.5,30.19,NE,34,0.0,0.0,87,0.00,,CLR,0.00,VWS V14.00,2013-01-31 13:52:00,
2013-01-31 05:57:00,37.1,33.6,30.19,NE,34,0.0,0.0,87,0.00,,CLR,0.00,VWS V14.00,2013-01-31 13:57:00,
2013-01-31 06:00:00,36.8,33.6,30.19,NE,34,0.0,0.0,88,0.00,,CLR,0.00,VWS V14.00,2013-01-31 14:00:00,
2013-01-31 06:02:00,37.1,33.9,30.19,NE,34,0.0,0.0,88,0.00,,CLR,0.00,VWS V14.00,2013-01-31 14:02:00,
2013-01-31 06:07:00,37.1,33.9,30.19,NE,34,0.0,0.0,88,0.00,,CLR,0.00,VWS V14.00,2013-01-31 14:07:00,
2013-01-31 06:12:00,37.0,33.8,30.18,NE,34,0.0,0.0,88,0.00,,CLR,0.00,VWS V14.00,2013-01-31 14:12:00,
2013-01-31 06:17:00,37.0,33.8,30.19,NE,34,0.0,0.0,88,0.00,,CLR,0.00,VWS V14.00,2013-01-31 14:17:00,
2013-01-31 06:22:00,37.3,34.1,30.19,NE,34,0.0,0.0,88,0.00,,CLR,0.00,VWS V14.00,2013-01-31 14:22:00,
2013-01-31 06:27:00,37.4,34.2,30.19,NE,34,0.0,0.0,88,0.00,,CLR,0.00,VWS V14.00,2013-01-31 14:27:00,
2013-01-31 06:30:00,36.7,33.5,30.21,NE,34,0.0,0.0,88,0.00,,CLR,0.00,VWS V14.00,2013-01-31 14:30:00,
2013-01-31 06:32:00,37.2,34.0,30.19,NE,34,0.0,0.0,88,0.00,,CLR,0.00,VWS V14.00,2013-01-31 14:32:00,
2013-01-31 06:37:00,37.2,33.7,30.19,NE,34,0.0,0.0,87,0.00,,CLR,0.00,VWS V14.00,2013-01-31 14:37:00,
2013-01-31 06:42:00,36.9,33.7,30.19,NE,34,0.0,0.0,88,0.00,,CLR,0.00,VWS V14.00,2013-01-31 14:42:00,
2013-01-31 06:47:00,36.9,33.7,30.19,NE,34,0.0,0.0,88,0.00,,CLR,0.00,VWS V14.00,2013-01-31 14:47:00,
2013-01-31 06:52:00,36.9,33.7,30.20,NE,34,0.0,0.0,88,0.00,,CLR,0.00,VWS V14.00,2013-01-31 14:52:00,
2013-01-31 06:57:00,36.9,33.7,30.20,NE,34,0.0,0.0,88,0.00,,CLR,0.00,VWS V14.00,2013-01-31 14:57:00,
2013-01-31 07:00:00,37.1,34.2,30.21,NE,34,0.0,0.0,89,0.00,,CLR,0.00,VWS V14.00,2013-01-31 15:00:00,
2013-01-31 07:02:00,36.9,33.7,30.20,NE,34,0.0,0.0,88,0.00,,CLR,0.00,VWS V14.00,2013-01-31 15:02:00,
2013-01-31 07:07:00,36.8,33.6,30.20,NE,34,0.0,0.0,88,0.00,,CLR,0.00,VWS V14.00,2013-01-31 15:07:00,
2013-01-31 07:12:00,36.8,33.6,30.20,NE,34,0.0,0.0,88,0.00,,CLR,0.00,VWS V14.00,2013-01-31 15:12:00,
2013-01-31 07:17:00,36.8,33.3,30.20,NE,34,0.0,0.0,87,0.00,,CLR,0.00,VWS V14.00,2013-01-31 15:17:00,
2013-01-31 07:22:00,36.8,33.6,30.20,NE,34,0.0,0.0,88,0.00,,CLR,0.00,VWS V14.00,2013-01-31 15:22:00,
2013-01-31 07:27:00,36.7,33.5,30.20,NE,34,0.0,0.0,88,0.00,,CLR,0.00,VWS V14.00,2013-01-31 15:27:00,
2013-01-31 07:30:00,38.2,35.2,30.21,NNE,33,0.0,0.0,89,0.00,,CLR,0.00,VWS V14.00,2013-01-31 15:30:00,
2013-01-31 07:32:00,36.7,33.5,30.21,NE,34,0.0,0.0,88,0.00,,CLR,0.00,VWS V14.00,2013-01-31 15:32:00,
2013-01-31 07:37:00,36.8,33.9,30.21,NE,34,0.0,0.0,89,0.00,,CLR,0.00,VWS V14.00,2013-01-31 15:37:00,
2013-01-31 07:42:00,37.1,34.2,30.21,NE,34,0.0,0.0,89,0.00,,CLR,0.00,VWS V14.00,2013-01-31 15:42:00,
2013-01-31 07:47:00,36.9,34.0,30.20,NE,34,0.0,0.0,89,0.00,,CLR,0.00,VWS V14.00,2013-01-31 15:47:00,
2013-01-31 07:52:00,37.1,34.2,30.21,NE,34,0.0,0.0,89,0.00,,CLR,0.00,VWS V14.00,2013-01-31 15:52:00,
2013-01-31 07:57:00,37.1,34.2,30.22,NE,34,0.0,0.0,89,0.00,,CLR,0.00,VWS V14.00,2013-01-31 15:57:00,
2013-01-31 08:00:00,39.2,36.5,30.21,NNE,33,0.0,0.0,90,0.00,,CLR,0.00,VWS V14.00,2013-01-31 16:00:00,
2013-01-31 08:02:00,37.1,34.2,30.21,NE,34,0.0,0.0,89,0.00,,CLR,0.00,VWS V14.00,2013-01-31 16:02:00,
2013-01-31 08:07:00,37.4,34.5,30.21,NE,34,0.0,0.0,89,0.00,,CLR,0.00,VWS V14.00,2013-01-31 16:07:00,
2013-01-31 08:12:00,37.4,34.5,30.22,NE,34,0.0,0.0,89,0.00,,CLR,0.00,VWS V14.00,2013-01-31 16:12:00,
2013-01-31 08:17:00,37.6,34.7,30.21,NE,34,0.0,0.0,89,0.00,,CLR,0.00,VWS V14.00,2013-01-31 16:17:00,
2013-01-31 08:22:00,37.5,34.6,30.22,NE,34,0.0,0.0,89,0.00,,CLR,0.00,VWS V14.00,2013-01-31 16:22:00,
2013-01-31 08:27:00,37.9,35.2,30.21,NE,34,0.0,0.0,90,0.00,,CLR,0.00,VWS V14.00,2013-01-31 16:27:00,
2013-01-31 08:30:00,41.7,39.0,30.22,NE,34,0.0,0.0,90,0.00,,CLR,0.00,VWS V14.00,2013-01-31 16:30:00,
2013-01-31 08:32:00,38.1,35.4,30.22,NE,34,0.0,0.0,90,0.00,,CLR,0.00,VWS V14.00,2013-01-31 16:32:00,
2013-01-31 08:37:00,38.1,35.4,30.21,NE,34,0.0,0.0,90,0.00,,CLR,0.00,VWS V14.00,2013-01-31 16:37:00,
2013-01-31 08:42:00,38.6,35.9,30.21,NE,34,0.0,0.0,90,0.00,,CLR,0.00,VWS V14.00,2013-01-31 16:42:00,
2013-01-31 08:47:00,38.8,36.1,30.22,NE,34,0.0,0.0,90,0.00,,CLR,0.00,VWS V14.00,2013-01-31 16:47:00,
2013-01-31 08:52:00,38.8,36.1,30.22,NE,34,0.0,0.0,90,0.00,,CLR,0.00,VWS V14.00,2013-01-31 16:52:00,
2013-01-31 08:57:00,39.0,36.3,30.21,NE,34,0.0,0.0,90,0.00,,CLR,0.00,VWS V14.00,2013-01-31 16:57:00,
2013-01-31 09:00:00,44.5,40.9,30.22,NE,34,0.0,0.0,87,0.00,,CLR,0.00,VWS V14.00,2013-01-31 17:00:00,
2013-01-31 09:02:00,39.2,36.5,30.21,NE,34,0.0,0.0,90,0.00,,CLR,0.00,VWS V14.00,2013-01-31 17:02:00,
2013-01-31 09:07:00,39.8,37.4,30.21,NE,34,0.0,0.0,91,0.00,,CLR,0.00,VWS V14.00,2013-01-31 17:07:00,
2013-01-31 09:12:00,40.2,37.8,30.21,NE,34,0.0,0.0,91,0.00,,CLR,0.00,VWS V14.00,2013-01-31 17:12:00,
2013-01-31 09:17:00,40.3,37.9,30.21,NE,34,0.0,0.0,91,0.00,,CLR,0.00,VWS V14.00,2013-01-31 17:17:00,
2013-01-31 09:22:00,40.7,38.0,30.21,NE,34,0.0,0.0,90,0.00,,CLR,0.00,VWS V14.00,2013-01-31 17:22:00,
2013-01-31 09:27:00,41.2,38.5,30.22,NE,34,0.0,0.0,90,0.00,,CLR,0.00,VWS V14.00,2013-01-31 17:27:00,
2013-01-31 09:30:00,48.2,43.3,30.22,NNE,33,0.0,0.0,83,0.00,,CLR,0.00,VWS V14.00,2013-01-31 17:30:00,
2013-01-31 09:32:00,41.6,38.6,30.22,NE,34,0.0,0.0,89,0.00,,CLR,0.00,VWS V14.00,2013-01-31 17:32:00,
2013-01-31 09:37:00,42.3,39.6,30.22,NE,34,0.0,0.0,90,0.00,,CLR,0.00,VWS V14.00,2013-01-31 17:37:00,
2013-01-31 09:42:00,42.8,39.8,30.22,NE,34,0.0,0.0,89,0.00,,CLR,0.00,VWS V14.00,2013-01-31 17:42:00,
2013-01-31 09:47:00,43.3,40.3,30.22,NE,34,0.0,0.0,89,0.00,,CLR,0.00,VWS V14.00,2013-01-31 17:47:00,
2013-01-31 09:52:00,43.6,40.3,30.22,NE,34,0.0,0.0,88,0.00,,CLR,0.00,VWS V14.00,2013-01-31 17:52:00,
2013-01-31 09:57:00,44.4,41.1,30.22,NE,34,0.0,0.0,88,0.00,,CLR,0.00,VWS V14.00,2013-01-31 17:57:00,
2013-01-31 10:00:00,51.9,45.6,30.20,NE,34,0.0,0.0,79,0.00,,CLR,0.00,VWS V14.00,2013-01-31 18:00:00,
2013-01-31 10:02:00,44.8,41.2,30.22,NE,34,0.0,0.0,87,0.00,,CLR,0.00,VWS V14.00,2013-01-31 18:02:00,
2013-01-31 10:07:00,45.6,41.4,30.22,NNE,33,0.0,0.0,85,0.00,,CLR,0.00,VWS V14.00,2013-01-31 18:07:00,
2013-01-31 10:12:00,46.0,42.0,30.22,NE,34,0.0,0.0,86,0.00,,CLR,0.00,VWS V14.00,2013-01-31 18:12:00,
2013-01-31 10:17:00,46.5,41.9,30.22,NE,34,0.0,0.0,84,0.00,,CLR,0.00,VWS V14.00,2013-01-31 18:17:00,
2013-01-31 10:22:00,47.2,42.6,30.22,NE,34,0.0,0.0,84,0.00,,CLR,0.00,VWS V14.00,2013-01-31 18:22:00,
2013-01-31 10:27:00,47.8,43.2,30.22,NE,34,0.0,0.0,84,0.00,,CLR,0.00,VWS V14.00,2013-01-31 18:27:00,
2013-01-31 10:30:00,56.1,48.3,30.19,North,6,0.0,4.0,75,0.00,,CLR,0.00,VWS V14.00,2013-01-31 18:30:00,
2013-01-31 10:32:00,48.6,43.7,30.22,NNE,33,0.0,0.0,83,0.00,,CLR,0.00,VWS V14.00,2013-01-31 18:32:00,
2013-01-31 10:37:00,49.2,44.0,30.21,NNE,33,0.0,0.0,82,0.00,,CLR,0.00,VWS V14.00,2013-01-31 18:37:00,
2013-01-31 10:42:00,49.7,44.4,30.21,NE,34,0.0,0.0,82,0.00,,CLR,0.00,VWS V14.00,2013-01-31 18:42:00,
2013-01-31 10:47:00,50.3,44.7,30.21,NNE,33,0.0,0.0,81,0.00,,CLR,0.00,VWS V14.00,2013-01-31 18:47:00,
2013-01-31 10:52:00,50.9,44.6,30.20,NNE,33,0.0,0.0,79,0.00,,CLR,0.00,VWS V14.00,2013-01-31 18:52:00,
2013-01-31 10:57:00,51.5,45.5,30.21,NE,34,0.0,0.0,80,0.00,,CLR,0.00,VWS V14.00,2013-01-31 18:57:00,
2013-01-31 11:00:00,60.3,48.9,30.18,ENE,71,0.0,7.0,66,0.00,,CLR,0.00,VWS V14.00,2013-01-31 19:00:00,
2013-01-31 11:02:00,52.1,45.5,30.20,NE,34,0.0,0.0,78,0.00,,CLR,0.00,VWS V14.00,2013-01-31 19:02:00,
2013-01-31 11:07:00,52.9,45.9,30.21,North,11,2.0,4.0,77,0.00,,CLR,0.00,VWS V14.00,2013-01-31 19:07:00,
2013-01-31 11:12:00,53.8,46.8,30.20,NE,42,0.0,4.0,77,0.00,,CLR,0.00,VWS V14.00,2013-01-31 19:12:00,
2013-01-31 11:17:00,54.1,47.1,30.19,North,5,0.0,4.0,77,0.00,,CLR,0.00,VWS V14.00,2013-01-31 19:17:00,
2013-01-31 11:22:00,54.9,47.5,30.20,NNE,24,0.0,4.0,76,0.00,,CLR,0.00,VWS V14.00,2013-01-31 19:22:00,
2013-01-31 11:27:00,55.6,47.5,30.19,North,6,0.0,4.0,74,0.00,,CLR,0.00,VWS V14.00,2013-01-31 19:27:00,
2013-01-31 11:30:00,63.5,49.4,30.17,South,171,0.0,5.0,60,0.00,,CLR,0.00,VWS V14.00,2013-01-31 19:30:00,
2013-01-31 11:32:00,56.5,48.3,30.20,NE,55,1.0,2.0,74,0.00,,CLR,0.00,VWS V14.00,2013-01-31 19:32:00,
2013-01-31 11:37:00,57.2,48.3,30.19,NE,48,0.0,2.0,72,0.00,,CLR,0.00,VWS V14.00,2013-01-31 19:37:00,
2013-01-31 11:42:00,57.9,48.2,30.19,ENE,63,0.0,5.0,70,0.00,,CLR,0.00,VWS V14.00,2013-01-31 19:42:00,
2013-01-31 11:47:00,58.5,48.4,30.18,SE,132,0.0,5.0,69,0.00,,CLR,0.00,VWS V14.00,2013-01-31 19:47:00,
2013-01-31 11:52:00,59.2,48.7,30.18,SE,137,0.0,7.0,68,0.00,,CLR,0.00,VWS V14.00,2013-01-31 19:52:00,
2013-01-31 11:57:00,60.0,49.0,30.18,ENE,60,0.0,7.0,67,0.00,,CLR,0.00,VWS V14.00,2013-01-31 19:57:00,
2013-01-31 12:00:00,66.4,50.7,30.15,NE,50,0.0,5.0,57,0.00,,CLR,0.00,VWS V14.00,2013-01-31 20:00:00,
2013-01-31 12:02:00,60.4,49.0,30.18,North,0,0.0,3.0,66,0.00,,CLR,0.00,VWS V14.00,2013-01-31 20:02:00,
2013-01-31 12:07:00,61.0,49.2,30.18,East,97,0.0,3.0,65,0.00,,CLR,0.00,VWS V14.00,2013-01-31 20:07:00,
2013-01-31 12:12:00,61.8,49.1,30.17,SSE,155,1.0,3.0,63,0.00,,CLR,0.00,VWS V14.00,2013-01-31 20:12:00,
2013-01-31 12:17:00,62.4,48.8,30.17,ENE,65,0.0,5.0,61,0.00,,CLR,0.00,VWS V14.00,2013-01-31 20:17:00,
2013-01-31 12:22:00,62.8,50.0,30.17,ENE,75,0.0,5.0,63,0.00,,CLR,0.00,VWS V14.00,2013-01-31 20:22:00,
2013-01-31 12:27:00,63.3,50.1,30.17,NE,51,0.0,5.0,62,0.00,,CLR,0.00,VWS V14.00,2013-01-31 20:27:00,
2013-01-31 12:30:00,69.2,51.4,30.14,East,93,1.0,4.0,53,0.00,,CLR,0.00,VWS V14.00,2013-01-31 20:30:00,
2013-01-31 12:32:00,63.7,50.0,30.17,NE,50,0.0,2.0,61,0.00,,CLR,0.00,VWS V14.00,2013-01-31 20:32:00,
2013-01-31 12:37:00,64.2,50.0,30.16,SSE,163,0.0,3.0,60,0.00,,CLR,0.00,VWS V14.00,2013-01-31 20:37:00,
2013-01-31 12:42:00,64.6,50.0,30.16,SSE,162,0.0,3.0,59,0.00,,CLR,0.00,VWS V14.00,2013-01-31 20:42:00,
2013-01-31 12:47:00,65.0,49.9,30.16,NW,321,0.0,5.0,58,0.00,,CLR,0.00,VWS V14.00,2013-01-31 20:47:00,
2013-01-31 12:52:00,65.4,50.2,30.16,NE,45,1.0,5.0,58,0.00,,CLR,0.00,VWS V14.00,2013-01-31 20:52:00,
2013-01-31 12:57:00,66.0,50.8,30.15,East,83,0.0,5.0,58,0.00,,CLR,0.00,VWS V14.00,2013-01-31 20:57:00,
2013-01-31 13:00:00,71.8,51.6,30.13,NE,50,0.0,4.0,49,0.00,,CLR,0.00,VWS V14.00,2013-01-31 21:00:00,
2013-01-31 13:02:00,66.6,50.9,30.15,North,351,0.0,3.0,57,0.00,,CLR,0.00,VWS V14.00,2013-01-31 21:02:00,
2013-01-31 13:07:00,67.3,51.6,30.15,NE,37,0.0,3.0,57,0.00,,CLR,0.00,VWS V14.00,2013-01-31 21:07:00,
2013-01-31 13:12:00,67.9,51.6,30.15,East,89,0.0,4.0,56,0.00,,CLR,0.00,VWS V14.00,2013-01-31 21:12:00,
2013-01-31 13:17:00,68.4,51.6,30.14,East,82,0.0,4.0,55,0.00,,CLR,0.00,VWS V14.00,2013-01-31 21:17:00,
2013-01-31 13:22:00,68.7,51.4,30.14,NE,54,0.0,4.0,54,0.00,,CLR,0.00,VWS V14.00,2013-01-31 21:22:00,
2013-01-31 13:27:00,68.7,50.9,30.14,NE,35,0.0,4.0,53,0.00,,CLR,0.00,VWS V14.00,2013-01-31 21:27:00,
2013-01-31 13:30:00,73.2,51.8,30.12,NE,45,0.0,3.0,47,0.00,,CLR,0.00,VWS V14.00,2013-01-31 21:30:00,
2013-01-31 13:32:00,69.2,51.4,30.14,NNE,29,0.0,4.0,53,0.00,,CLR,0.00,VWS V14.00,2013-01-31 21:32:00,
2013-01-31 13:37:00,69.9,52.0,30.14,North,3,0.0,4.0,53,0.00,,CLR,0.00,VWS V14.00,2013-01-31 21:37:00,
2013-01-31 13:42:00,70.0,51.6,30.14,NNE,20,0.0,4.0,52,0.00,,CLR,0.00,VWS V14.00,2013-01-31 21:42:00,
2013-01-31 13:47:00,70.8,52.8,30.14,ENE,68,0.0,4.0,53,0.00,,CLR,0.00,VWS V14.00,2013-01-31 21:47:00,
2013-01-31 13:52:00,71.3,52.8,30.13,ENE,66,0.0,4.0,52,0.00,,CLR,0.00,VWS V14.00,2013-01-31 21:52:00,
2013-01-31 13:57:00,71.6,52.5,30.13,ENE,59,0.0,4.0,51,0.00,,CLR,0.00,VWS V14.00,2013-01-31 21:57:00,
2013-01-31 14:00:00,74.6,51.3,30.11,NNE,24,0.0,2.0,44,0.00,,CLR,0.00,VWS V14.00,2013-01-31 22:00:00,
2013-01-31 14:02:00,71.8,51.6,30.13,North,9,0.0,2.0,49,0.00,,CLR,0.00,VWS V14.00,2013-01-31 22:02:00,
2013-01-31 14:07:00,72.0,51.3,30.13,ENE,65,0.0,3.0,48,0.00,,CLR,0.00,VWS V14.00,2013-01-31 22:07:00,
2013-01-31 14:12:00,72.1,51.3,30.12,East,79,0.0,3.0,48,0.00,,CLR,0.00,VWS V14.00,2013-01-31 22:12:00,
2013-01-31 14:17:00,72.5,51.7,30.12,ENE,64,0.0,3.0,48,0.00,,CLR,0.00,VWS V14.00,2013-01-31 22:17:00,
2013-01-31 14:22:00,72.9,52.1,30.12,NE,36,0.0,3.0,48,0.00,,CLR,0.00,VWS V14.00,2013-01-31 22:22:00,
2013-01-31 14:27:00,73.5,52.6,30.12,NE,52,0.0,3.0,48,0.00,,CLR,0.00,VWS V14.00,2013-01-31 22:27:00,
2013-01-31 14:30:00,75.0,52.2,30.12,NNW,328,0.0,4.0,45,0.00,,CLR,0.00,VWS V14.00,2013-01-31 22:30:00,
2013-01-31 14:32:00,73.2,51.8,30.12,NE,47,0.0,1.0,47,0.00,,CLR,0.00,VWS V14.00,2013-01-31 22:32:00,
2013-01-31 14:37:00,73.8,52.3,30.12,NE,55,0.0,2.0,47,0.00,,CLR,0.00,VWS V14.00,2013-01-31 22:37:00,
2013-01-31 14:42:00,74.0,51.3,30.12,NNE,23,1.0,2.0,45,0.00,,CLR,0.00,VWS V14.00,2013-01-31 22:42:00,
2013-01-31 14:47:00,74.3,51.6,30.12,ESE,102,0.0,2.0,45,0.00,,CLR,0.00,VWS V14.00,2013-01-31 22:47:00,
2013-01-31 14:52:00,74.7,51.4,30.12,ESE,102,0.0,2.0,44,0.00,,CLR,0.00,VWS V14.00,2013-01-31 22:52:00,
2013-01-31 14:57:00,74.7,51.4,30.12,ESE,105,0.0,2.0,44,0.00,,CLR,0.00,VWS V14.00,2013-01-31 22:57:00,
2013-01-31 15:00:00,73.7,52.8,30.11,NE,51,0.0,4.0,48,0.00,,CLR,0.00,VWS V14.00,2013-01-31 23:00:00,
2013-01-31 15:02:00,74.7,52.0,30.12,East,80,0.0,1.0,45,0.00,,CLR,0.00,VWS V14.00,2013-01-31 23:02:00,
2013-01-31 15:07:00,75.2,52.4,30.12,NNE,19,0.0,1.0,45,0.00,,CLR,0.00,VWS V14.00,2013-01-31 23:07:00,
2013-01-31 15:12:00,74.8,52.1,30.12,SE,126,0.0,2.0,45,0.00,,CLR,0.00,VWS V14.00,2013-01-31 23:12:00,
2013-01-31 15:17:00,75.1,51.7,30.12,ENE,68,0.0,2.0,44,0.00,,CLR,0.00,VWS V14.00,2013-01-31 23:17:00,
2013-01-31 15:22:00,75.1,52.3,30.12,East,87,0.0,4.0,45,0.00,,CLR,0.00,VWS V14.00,2013-01-31 23:22:00,
2013-01-31 15:27:00,75.1,52.9,30.12,East,97,0.0,4.0,46,0.00,,CLR,0.00,VWS V14.00,2013-01-31 23:27:00,
2013-01-31 15:30:00,69.4,53.0,30.11,NNE,33,0.0,3.0,56,0.00,,CLR,0.00,VWS V14.00,2013-01-31 23:30:00,
2013-01-31 15:32:00,75.3,52.5,30.13,NNE,31,0.0,1.0,45,0.00,,CLR,0.00,VWS V14.00,2013-01-31 23:32:00,
2013-01-31 15:37:00,74.8,52.7,30.12,NE,49,0.0,1.0,46,0.00,,CLR,0.00,VWS V14.00,2013-01-31 23:37:00,
2013-01-31 15:42:00,74.8,52.7,30.12,NE,37,0.0,2.0,46,0.00,,CLR,0.00,VWS V14.00,2013-01-31 23:42:00,
2013-01-31 15:47:00,74.9,52.8,30.12,NE,38,1.0,2.0,46,0.00,,CLR,0.00,VWS V14.00,2013-01-31 23:47:00,
2013-01-31 15:52:00,74.6,52.5,30.12,East,98,1.0,2.0,46,0.00,,CLR,0.00,VWS V14.00,2013-01-31 23:52:00,
2013-01-31 15:57:00,74.1,53.2,30.12,NNE,13,0.0,4.0,48,0.00,,CLR,0.00,VWS V14.00,2013-01-31 23:57:00,
2013-01-31 16:00:00,66.3,50.6,30.11,ENE,59,0.0,2.0,57,0.00,,CLR,0.00,VWS V14.00,2013-02-01 00:00:00,
2013-01-31 16:02:00,72.9,52.6,30.12,NE,43,0.0,1.0,49,0.00,,CLR,0.00,VWS V14.00,2013-02-01 00:02:00,
2013-01-31 16:07:00,71.9,52.3,30.12,NNE,17,0.0,2.0,50,0.00,,CLR,0.00,VWS V14.00,2013-02-01 00:07:00,
2013-01-31 16:12:00,71.3,52.8,30.11,ENE,64,0.0,2.0,52,0.00,,CLR,0.00,VWS V14.00,2013-02-01 00:12:00,
2013-01-31 16:17:00,70.7,52.8,30.12,NE,43,0.0,2.0,53,0.00,,CLR,0.00,VWS V14.00,2013-02-01 00:17:00,
2013-01-31 16:22:00,70.1,53.2,30.12,NE,43,0.0,2.0,55,0.00,,CLR,0.00,VWS V14.00,2013-02-01 00:22:00,
2013-01-31 16:27:00,69.8,52.9,30.11,NNE,31,0.0,3.0,55,0.00,,CLR,0.00,VWS V14.00,2013-02-01 00:27:00,
2013-01-31 16:30:00,64.1,51.7,30.10,ENE,60,0.0,1.0,64,0.00,,CLR,0.00,VWS V14.00,2013-02-01 00:30:00,
2013-01-31 16:32:00,69.0,52.2,30.11,NE,36,0.0,2.0,55,0.00,,CLR,0.00,VWS V14.00,2013-02-01 00:32:00,
2013-01-31 16:37:00,68.8,52.5,30.11,NE,40,0.0,2.0,56,0.00,,CLR,0.00,VWS V14.00,2013-02-01 00:37:00,
2013-01-31 16:42:00,68.3,52.0,30.11,NE,41,0.0,2.0,56,0.00,,CLR,0.00,VWS V14.00,2013-02-01 00:42:00,
2013-01-31 16:47:00,67.9,52.1,30.11,NE,54,0.0,2.0,57,0.00,,CLR,0.00,VWS V14.00,2013-02-01 00:47:00,
2013-01-31 16:52:00,67.0,51.3,30.11,NE,54,0.0,2.0,57,0.00,,CLR,0.00,VWS V14.00,2013-02-01 00:52:00,
2013-01-31 16:57:00,66.9,51.2,30.11,ENE,58,0.0,2.0,57,0.00,,CLR,0.00,VWS V14.00,2013-02-01 00:57:00,
2013-01-31 17:00:00,61.2,50.2,30.11,ENE,59,0.0,0.0,67,0.00,,CLR,0.00,VWS V14.00,2013-02-01 01:00:00,
2013-01-31 17:02:00,66.2,51.0,30.11,ENE,59,0.0,0.0,58,0.00,,CLR,0.00,VWS V14.00,2013-02-01 01:02:00,
2013-01-31 17:07:00,65.9,50.7,30.11,ENE,59,0.0,0.0,58,0.00,,CLR,0.00,VWS V14.00,2013-02-01 01:07:00,
2013-01-31 17:12:00,65.7,51.0,30.11,ENE,59,0.0,0.0,59,0.00,,CLR,0.00,VWS V14.00,2013-02-01 01:12:00,
2013-01-31 17:17:00,65.3,51.5,30.11,ENE,60,0.0,1.0,61,0.00,,CLR,0.00,VWS V14.00,2013-02-01 01:17:00,
2013-01-31 17:22:00,64.7,51.8,30.10,ENE,59,0.0,1.0,63,0.00,,CLR,0.00,VWS V14.00,2013-02-01 01:22:00,
2013-01-31 17:27:00,64.6,52.2,30.11,ENE,59,0.0,1.0,64,0.00,,CLR,0.00,VWS V14.00,2013-02-01 01:27:00,
2013-01-31 17:30:00,58.9,48.8,30.11,ENE,59,0.0,0.0,69,0.00,,CLR,0.00,VWS V14.00,2013-02-01 01:30:00,
2013-01-31 17:32:00,64.1,51.7,30.11,ENE,59,0.0,0.0,64,0.00,,CLR,0.00,VWS V14.00,2013-02-01 01:32:00,
2013-01-31 17:37:00,63.4,51.0,30.10,ENE,59,0.0,0.0,64,0.00,,CLR,0.00,VWS V14.00,2013-02-01 01:37:00,
2013-01-31 17:42:00,63.0,51.1,30.10,ENE,59,0.0,0.0,65,0.00,,CLR,0.00,VWS V14.00,2013-02-01 01:42:00,
2013-01-31 17:47:00,62.5,50.6,30.11,ENE,59,0.0,0.0,65,0.00,,CLR,0.00,VWS V14.00,2013-02-01 01:47:00,
2013-01-31 17:52:00,61.9,50.4,30.11,ENE,59,0.0,0.0,66,0.00,,CLR,0.00,VWS V14.00,2013-02-01 01:52:00,
2013-01-31 17:57:00,61.3,49.9,30.11,ENE,60,0.0,0.0,66,0.00,,CLR,0.00,VWS V14.00,2013-02-01 01:57:00,
2013-01-31 18:00:00,56.9,48.0,30.12,ENE,59,0.0,0.0,72,0.00,,CLR,0.00,VWS V14.00,2013-02-01 02:00:00,
2013-01-31 18:02:00,61.1,50.1,30.11,ENE,59,0.0,0.0,67,0.00,,CLR,0.00,VWS V14.00,2013-02-01 02:02:00,
2013-01-31 18:07:00,60.7,49.7,30.11,ENE,59,0.0,0.0,67,0.00,,CLR,0.00,VWS V14.00,2013-02-01 02:07:00,
2013-01-31 18:12:00,60.2,49.6,30.12,ENE,59,0.0,0.0,68,0.00,,CLR,0.00,VWS V14.00,2013-02-01 02:12:00,
2013-01-31 18:17:00,59.9,49.3,30.11,ENE,59,0.0,0.0,68,0.00,,CLR,0.00,VWS V14.00,2013-02-01 02:17:00,
2013-01-31 18:22:00,59.5,48.9,30.11,ENE,59,0.0,0.0,68,0.00,,CLR,0.00,VWS V14.00,2013-02-01 02:22:00,
2013-01-31 18:27:00,58.9,48.8,30.12,ENE,59,0.0,0.0,69,0.00,,CLR,0.00,VWS V14.00,2013-02-01 02:27:00,
2013-01-31 18:30:00,55.0,46.9,30.11,ENE,59,0.0,0.0,74,0.00,,CLR,0.00,VWS V14.00,2013-02-01 02:30:00,
2013-01-31 18:32:00,58.7,48.6,30.12,ENE,59,0.0,0.0,69,0.00,,CLR,0.00,VWS V14.00,2013-02-01 02:32:00,
2013-01-31 18:37:00,58.1,48.8,30.11,ENE,59,0.0,0.0,71,0.00,,CLR,0.00,VWS V14.00,2013-02-01 02:37:00,
2013-01-31 18:42:00,57.9,48.6,30.11,ENE,59,0.0,0.0,71,0.00,,CLR,0.00,VWS V14.00,2013-02-01 02:42:00,
2013-01-31 18:47:00,57.6,48.7,30.11,ENE,59,0.0,0.0,72,0.00,,CLR,0.00,VWS V14.00,2013-02-01 02:47:00,
2013-01-31 18:52:00,57.3,48.4,30.12,ENE,59,0.0,0.0,72,0.00,,CLR,0.00,VWS V14.00,2013-02-01 02:52:00,
2013-01-31 18:57:00,57.0,48.4,30.11,ENE,59,0.0,0.0,73,0.00,,CLR,0.00,VWS V14.00,2013-02-01 02:57:00,
2013-01-31 19:00:00,53.1,46.4,30.12,ENE,59,0.0,0.0,78,0.00,,CLR,0.00,VWS V14.00,2013-02-01 03:00:00,
2013-01-31 19:02:00,56.5,48.0,30.11,ENE,59,0.0,0.0,73,0.00,,CLR,0.00,VWS V14.00,2013-02-01 03:02:00,
2013-01-31 19:07:00,56.2,47.7,30.11,ENE,59,0.0,0.0,73,0.00,,CLR,0.00,VWS V14.00,2013-02-01 03:07:00,
2013-01-31 19:12:00,56.1,47.6,30.12,ENE,59,0.0,0.0,73,0.00,,CLR,0.00,VWS V14.00,2013-02-01 03:12:00,
2013-01-31 19:17:00,55.8,47.3,30.11,ENE,59,0.0,0.0,73,0.00,,CLR,0.00,VWS V14.00,2013-02-01 03:17:00,
2013-01-31 19:22:00,55.5,47.4,30.11,ENE,59,0.0,0.0,74,0.00,,CLR,0.00,VWS V14.00,2013-02-01 03:22:00,
2013-01-31 19:27:00,55.2,47.1,30.11,ENE,59,0.0,0.0,74,0.00,,CLR,0.00,VWS V14.00,2013-02-01 03:27:00,
2013-01-31 19:30:00,51.3,45.3,30.12,ENE,59,0.0,0.0,80,0.00,,CLR,0.00,VWS V14.00,2013-02-01 03:30:00,
2013-01-31 19:32:00,55.0,47.2,30.11,ENE,59,0.0,0.0,75,0.00,,CLR,0.00,VWS V14.00,2013-02-01 03:32:00,
2013-01-31 19:37:00,54.7,47.3,30.11,ENE,59,0.0,0.0,76,0.00,,CLR,0.00,VWS V14.00,2013-02-01 03:37:00,
2013-01-31 19:42:00,54.1,46.7,30.11,ENE,59,0.0,0.0,76,0.00,,CLR,0.00,VWS V14.00,2013-02-01 03:42:00,
2013-01-31 19:47:00,53.9,46.5,30.11,ENE,60,0.0,0.0,76,0.00,,CLR,0.00,VWS V14.00,2013-02-01 03:47:00,
2013-01-31 19:52:00,53.4,46.0,30.12,ENE,59,0.0,0.0,76,0.00,,CLR,0.00,VWS V14.00,2013-02-01 03:52:00,
2013-01-31 19:57:00,53.2,46.2,30.11,ENE,59,0.0,0.0,77,0.00,,CLR,0.00,VWS V14.00,2013-02-01 03:57:00,
2013-01-31 20:00:00,50.0,44.7,30.11,ENE,60,0.0,0.0,82,0.00,,CLR,0.00,VWS V14.00,2013-02-01 04:00:00,
2013-01-31 20:02:00,52.8,46.1,30.11,ENE,59,0.0,0.0,78,0.00,,CLR,0.00,VWS V14.00,2013-02-01 04:02:00,
2013-01-31 20:07:00,52.7,46.0,30.11,ENE,59,0.0,0.0,78,0.00,,CLR,0.00,VWS V14.00,2013-02-01 04:07:00,
2013-01-31 20:12:00,52.2,45.9,30.11,ENE,59,0.0,0.0,79,0.00,,CLR,0.00,VWS V14.00,2013-02-01 04:12:00,
2013-01-31 20:17:00,52.0,45.7,30.12,ENE,60,0.0,0.0,79,0.00,,CLR,0.00,VWS V14.00,2013-02-01 04:17:00,
2013-01-31 20:22:00,51.6,45.3,30.11,ENE,59,0.0,0.0,79,0.00,,CLR,0.00,VWS V14.00,2013-02-01 04:22:00,
2013-01-31 20:27:00,51.2,45.2,30.11,ENE,59,0.0,0.0,80,0.00,,CLR,0.00,VWS V14.00,2013-02-01 04:27:00,
2013-01-31 20:30:00,48.6,43.7,30.11,ENE,59,0.0,0.0,83,0.00,,CLR,0.00,VWS V14.00,2013-02-01 04:30:00,
2013-01-31 20:32:00,51.2,45.2,30.12,ENE,59,0.0,0.0,80,0.00,,CLR,0.00,VWS V14.00,2013-02-01 04:32:00,
2013-01-31 20:37:00,50.8,44.9,30.11,ENE,59,0.0,0.0,80,0.00,,CLR,0.00,VWS V14.00,2013-02-01 04:37:00,
2013-01-31 20:42:00,50.7,44.8,30.11,ENE,59,0.0,0.0,80,0.00,,CLR,0.00,VWS V14.00,2013-02-01 04:42:00,
2013-01-31 20:47:00,50.3,44.7,30.11,ENE,59,0.0,0.0,81,0.00,,CLR,0.00,VWS V14.00,2013-02-01 04:47:00,
2013-01-31 20:52:00,50.1,44.5,30.11,ENE,59,0.0,0.0,81,0.00,,CLR,0.00,VWS V14.00,2013-02-01 04:52:00,
2013-01-31 20:57:00,49.9,44.3,30.11,ENE,59,0.0,0.0,81,0.00,,CLR,0.00,VWS V14.00,2013-02-01 04:57:00,
2013-01-31 21:00:00,50.0,44.7,30.11,ENE,60,0.0,0.0,82,0.00,,CLR,0.00,VWS V14.00,2013-02-01 05:00:00,
2013-01-31 21:01:00,50.1,44.5,30.11,ENE,59,0.0,0.0,81,0.00,,CLR,0.00,VWS V14.00,2013-02-01 05:01:00,
2013-01-31 21:06:00,49.5,43.9,30.11,ENE,59,0.0,0.0,81,0.00,,CLR,0.00,VWS V14.00,2013-02-01 05:06:00,
2013-01-31 21:11:00,49.4,44.1,30.11,ENE,59,0.0,0.0,82,0.00,,CLR,0.00,VWS V14.00,2013-02-01 05:11:00,
2013-01-31 21:16:00,49.3,44.0,30.11,ENE,59,0.0,0.0,82,0.00,,CLR,0.00,VWS V14.00,2013-02-01 05:16:00,
2013-01-31 21:21:00,49.0,44.1,30.11,ENE,59,0.0,0.0,83,0.00,,CLR,0.00,VWS V14.00,2013-02-01 05:21:00,
2013-01-31 21:26:00,48.8,43.9,30.11,ENE,59,0.0,0.0,83,0.00,,CLR,0.00,VWS V14.00,2013-02-01 05:26:00,
2013-01-31 21:30:00,46.7,42.4,30.11,ENE,59,0.0,0.0,85,0.00,,CLR,0.00,VWS V14.00,2013-02-01 05:30:00,
2013-01-31 21:31:00,48.7,43.5,30.11,ENE,59,0.0,0.0,82,0.00,,CLR,0.00,VWS V14.00,2013-02-01 05:31:00,
2013-01-31 21:36:00,48.2,43.3,30.11,ENE,59,0.0,0.0,83,0.00,,CLR,0.00,VWS V14.00,2013-02-01 05:36:00,
2013-01-31 21:41:00,48.1,43.5,30.11,ENE,59,0.0,0.0,84,0.00,,CLR,0.00,VWS V14.00,2013-02-01 05:41:00,
2013-01-31 21:46:00,48.0,43.4,30.11,ENE,59,0.0,0.0,84,0.00,,CLR,0.00,VWS V14.00,2013-02-01 05:46:00,
2013-01-31 21:51:00,47.7,43.1,30.11,ENE,59,0.0,0.0,84,0.00,,CLR,0.00,VWS V14.00,2013-02-01 05:51:00,
2013-01-31 21:56:00,47.6,43.0,30.11,ENE,59,0.0,0.0,84,0.00,,CLR,0.00,VWS V14.00,2013-02-01 05:56:00,
2013-01-31 22:00:00,45.8,41.9,30.12,ENE,59,0.0,0.0,86,0.00,,CLR,0.00,VWS V14.00,2013-02-01 06:00:00,
2013-01-31 22:01:00,47.6,43.3,30.11,ENE,59,0.0,0.0,85,0.00,,CLR,0.00,VWS V14.00,2013-02-01 06:01:00,
2013-01-31 22:06:00,47.3,43.0,30.11,ENE,59,0.0,0.0,85,0.00,,CLR,0.00,VWS V14.00,2013-02-01 06:06:00,
2013-01-31 22:11:00,47.1,42.5,30.11,ENE,60,0.0,0.0,84,0.00,,CLR,0.00,VWS V14.00,2013-02-01 06:11:00,
2013-01-31 22:16:00,47.0,42.7,30.11,ENE,59,0.0,0.0,85,0.00,,CLR,0.00,VWS V14.00,2013-02-01 06:16:00,
2013-01-31 22:21:00,46.9,42.6,30.11,ENE,59,0.0,0.0,85,0.00,,CLR,0.00,VWS V14.00,2013-02-01 06:21:00,
2013-01-31 22:26:00,46.7,42.4,30.11,ENE,59,0.0,0.0,85,0.00,,CLR,0.00,VWS V14.00,2013-02-01 06:26:00,
2013-01-31 22:30:00,44.5,40.9,30.11,ENE,59,0.0,0.0,87,0.00,,CLR,0.00,VWS V14.00,2013-02-01 06:30:00,
2013-01-31 22:31:00,46.6,42.3,30.12,ENE,59,0.0,0.0,85,0.00,,CLR,0.00,VWS V14.00,2013-02-01 06:31:00,
2013-01-31 22:36:00,46.2,42.0,30.12,ENE,59,0.0,0.0,85,0.00,,CLR,0.00,VWS V14.00,2013-02-01 06:36:00,
2013-01-31 22:41:00,46.0,42.0,30.12,ENE,59,0.0,0.0,86,0.00,,CLR,0.00,VWS V14.00,2013-02-01 06:41:00,
2013-01-31 22:46:00,45.9,42.3,30.12,ENE,59,0.0,0.0,87,0.00,,,0.00,VWS V14.00,2013-02-01 06:46:00,
2013-01-31 22:51:00,46.1,42.8,30.11,ENE,59,0.0,0.0,88,0.00,,,0.00,VWS V14.00,2013-02-01 06:51:00,
2013-01-31 22:56:00,45.8,42.2,30.12,ENE,59,0.0,0.0,87,0.00,,,0.00,VWS V14.00,2013-02-01 06:56:00,
2013-01-31 23:00:00,43.9,40.6,30.12,ENE,59,0.0,0.0,88,0.00,,CLR,0.00,VWS V14.00,2013-02-01 07:00:00,
2013-01-31 23:01:00,45.8,41.9,30.12,ENE,59,0.0,0.0,86,0.00,,,0.00,VWS V14.00,2013-02-01 07:01:00,
2013-01-31 23:06:00,45.6,41.7,30.12,ENE,59,0.0,0.0,86,0.00,,,0.00,VWS V14.00,2013-02-01 07:06:00,
2013-01-31 23:11:00,45.4,41.5,30.12,ENE,60,0.0,0.0,86,0.00,,,0.00,VWS V14.00,2013-02-01 07:11:00,
2013-01-31 23:16:00,45.5,41.9,30.11,ENE,59,0.0,0.0,87,0.00,,,0.00,VWS V14.00,2013-02-01 07:16:00,
2013-01-31 23:21:00,45.1,41.2,30.11,ENE,59,0.0,0.0,86,0.00,,,0.00,VWS V14.00,2013-02-01 07:21:00,
2013-01-31 23:26:00,44.7,40.8,30.11,ENE,59,0.0,0.0,86,0.00,,,0.00,VWS V14.00,2013-02-01 07:26:00,
2013-01-31 23:30:00,43.1,40.1,30.12,ENE,59,0.0,0.0,89,0.00,,CLR,0.00,VWS V14.00,2013-02-01 07:30:00,
2013-01-31 23:31:00,44.6,41.3,30.11,ENE,59,0.0,0.0,88,0.00,,,0.00,VWS V14.00,2013-02-01 07:31:00,
2013-01-31 23:36:00,44.7,41.4,30.12,ENE,60,0.0,0.0,88,0.00,,,0.00,VWS V14.00,2013-02-01 07:36:00,
2013-01-31 23:41:00,44.6,41.3,30.12,ENE,59,0.0,0.0,88,0.00,,,0.00,VWS V14.00,2013-02-01 07:41:00,
2013-01-31 23:46:00,44.3,41.0,30.12,ENE,59,0.0,0.0,88,0.00,,,0.00,VWS V14.00,2013-02-01 07:46:00,
2013-01-31 23:51:00,44.0,41.0,30.12,ENE,59,0.0,0.0,89,0.00,,,0.00,VWS V14.00,2013-02-01 07:51:00,
2013-01-31 23:56:00,44.1,40.8,30.12,ENE,59,0.0,0.0,88,0.00,,,0.00,VWS V14.00,2013-02-01 07:56:00,